EW6086 Weather Reports


Display with metric or nautical units.
time (UTC)temp
F
wind
direction
speed
MPH
gust
MPH
rain 1hr
in
rain 24hr
in
rain mn
in
humidity
%
barometer
mb
20220528035236 80 90 1.0 4.0 0.00 0.00 0.00 91 1013.2
20220528034730 80 90 1.0 4.0 0.00 0.00 0.00 91 1013.1
20220528034224 81 90 0.0 4.0 0.00 0.00 0.00 92 1013.1
20220528033718 81 90 0.0 4.0 0.00 0.00 0.00 91 1013.2
20220528033212 81 90 0.0 4.0 0.00 0.00 0.00 91 1013.1
20220528032706 81 211 0.0 4.0 0.00 0.00 0.00 91 1013.1
20220528032200 81 207 1.0 4.0 0.00 0.00 0.00 91 1013.1
20220528031655 81 90 1.0 4.0 0.00 0.00 0.00 91 1013.1
20220528031147 81 90 1.0 4.0 0.00 0.00 0.00 91 1013.0
20220528030641 80 90 1.0 4.0 0.00 0.00 0.00 92 1012.9
20220528030136 81 90 1.0 5.0 0.00 0.00 0.00 92 1012.8
20220528025631 80 90 0.0 5.0 0.00 0.00 0.00 92 1012.9
20220528025125 81 90 1.0 6.0 0.00 0.00 0.00 92 1012.8
20220528024618 81 90 1.0 6.0 0.00 0.00 0.00 91 1012.7
20220528024112 81 220 2.0 8.0 0.00 0.00 0.00 91 1012.6
20220528023605 81 215 2.0 8.0 0.00 0.00 0.00 91 1012.6
20220528023100 81 211 1.0 6.0 0.00 0.00 0.00 91 1012.6
20220528022558 81 90 1.0 5.0 0.00 0.00 0.00 91 1012.5
20220528022048 81 90 1.0 4.0 0.00 0.00 0.00 91 1012.6
20220528021543 81 213 1.0 4.0 0.00 0.00 0.00 91 1012.5
20220528021036 81 209 1.0 7.0 0.00 0.00 0.00 90 1012.5
20220528020529 81 90 2.0 7.0 0.00 0.00 0.00 90 1012.5
20220528020037 81 206 2.0 7.0 0.00 0.00 0.00 90 1012.5
20220528015518 81 90 2.0 7.0 0.00 0.00 0.00 90 1012.4
20220528015012 81 206 1.0 6.0 0.00 0.00 0.00 89 1012.4
20220528014506 82 207 1.0 4.0 0.00 0.00 0.00 89 1012.3
20220528014000 82 207 1.0 6.0 0.00 0.00 0.00 89 1012.3
20220528013454 82 90 2.0 6.0 0.00 0.00 0.00 89 1012.2
20220528012948 82 90 2.0 6.0 0.00 0.00 0.00 88 1012.2
20220528012443 82 90 1.0 6.0 0.00 0.00 0.00 88 1012.2
20220528011936 82 90 2.0 5.0 0.00 0.00 0.00 88 1012.2
20220528011436 82 90 2.0 8.0 0.00 0.00 0.00 88 1012.1
20220528010933 82 90 1.0 8.0 0.00 0.00 0.00 88 1012.1
20220528010438 83 90 1.0 8.0 0.00 0.00 0.00 87 1012.0
20220528005932 83 90 2.0 10.0 0.00 0.00 0.00 87 1012.0
20220528005435 83 206 4.0 10.0 0.00 0.00 0.00 87 1012.0
20220528004932 83 90 4.0 9.0 0.00 0.00 0.00 86 1012.0
20220528004429 83 90 4.0 10.0 0.00 0.00 0.00 86 1011.9
20220528003929 83 203 4.0 10.0 0.00 0.00 0.00 85 1011.9
20220528003428 83 90 5.0 8.0 0.00 0.00 0.00 85 1011.9
20220528002928 83 90 5.0 8.0 0.00 0.00 0.00 86 1011.9
20220528002427 84 90 5.0 8.0 0.00 0.00 0.00 85 1011.9
20220528001926 84 90 5.0 9.0 0.00 0.00 0.00 85 1011.8
20220528001429 84 90 5.0 9.0 0.00 0.00 0.00 84 1011.9
20220528000923 84 90 5.0 9.0 0.00 0.00 0.00 84 1011.8
20220528000424 85 90 5.0 9.0 0.00 0.00 0.00 83 1011.7
20220527235924 85 90 5.0 9.0 0.00 0.00 0.00 83 1011.7
20220527235425 85 90 4.0 9.0 0.00 0.00 0.00 83 1011.7
20220527234922 85 90 5.0 9.0 0.00 0.00 0.00 84 1011.8
20220527234423 85 90 6.0 9.0 0.00 0.00 0.00 84 1011.8
20220527233922 85 90 6.0 10.0 0.00 0.00 0.00 83 1011.9
20220527233422 86 90 6.0 10.0 0.00 0.00 0.00 82 1011.9
20220527232923 86 90 5.0 9.0 0.00 0.00 0.00 81 1011.9
20220527232436 86 90 5.0 9.0 0.00 0.00 0.00 79 1011.9
20220527231935 86 90 5.0 9.0 0.00 0.00 0.00 78 1011.9
20220527231435 87 90 4.0 9.0 0.00 0.00 0.00 79 1011.9
20220527230935 87 90 4.0 9.0 0.00 0.00 0.00 76 1011.9
20220527230435 87 90 4.0 9.0 0.00 0.00 0.00 77 1011.9
20220527225936 87 90 4.0 9.0 0.00 0.00 0.00 76 1011.9
20220527225434 87 90 5.0 9.0 0.00 0.00 0.00 76 1011.9
20220527224935 87 90 5.0 9.0 0.00 0.00 0.00 75 1012.0
20220527224421 87 90 5.0 9.0 0.00 0.00 0.00 75 1012.0
20220527223912 87 90 5.0 9.0 0.00 0.00 0.00 75 1012.1
20220527223409 87 90 4.0 9.0 0.00 0.00 0.00 77 1012.2
20220527222903 88 90 4.0 9.0 0.00 0.00 0.00 76 1012.2
20220527222357 88 90 5.0 9.0 0.00 0.00 0.00 76 1012.3
20220527221849 88 90 5.0 9.0 0.00 0.00 0.00 76 1012.4
20220527221342 88 90 5.0 9.0 0.00 0.00 0.00 74 1012.4
20220527220840 88 90 4.0 8.0 0.00 0.00 0.00 75 1012.5
20220527220331 88 90 4.0 9.0 0.00 0.00 0.00 76 1012.5
20220527215832 87 90 5.0 9.0 0.00 0.00 0.00 77 1012.6
20220527215333 87 90 5.0 9.0 0.00 0.00 0.00 77 1012.7
20220527214832 87 90 6.0 9.0 0.00 0.00 0.00 79 1012.7
20220527214332 87 90 6.0 10.0 0.00 0.00 0.00 79 1012.8
20220527213831 87 90 6.0 10.0 0.00 0.00 0.00 78 1012.9
20220527213330 87 90 6.0 9.0 0.00 0.00 0.00 78 1013.0
20220527212832 88 90 5.0 12.0 0.00 0.00 0.00 78 1013.0
20220527212329 88 90 6.0 12.0 0.00 0.00 0.00 79 1013.1
20220527211835 88 90 5.0 12.0 0.00 0.00 0.00 78 1013.1
20220527211328 88 90 5.0 10.0 0.00 0.00 0.00 77 1013.2
20220527210826 88 90 6.0 13.0 0.00 0.00 0.00 77 1013.2
20220527210326 88 90 6.0 13.0 0.00 0.00 0.00 77 1013.3
20220527205826 88 90 5.0 13.0 0.00 0.00 0.00 77 1013.5
20220527205326 88 90 6.0 13.0 0.00 0.00 0.00 77 1013.5
20220527204826 88 90 6.0 13.0 0.00 0.00 0.00 77 1013.5
20220527204326 88 90 5.0 11.0 0.00 0.00 0.00 77 1013.5
20220527203824 88 90 5.0 11.0 0.00 0.00 0.00 76 1013.6
20220527203322 88 90 6.0 11.0 0.00 0.00 0.00 76 1013.7
20220527202817 88 90 6.0 11.0 0.00 0.00 0.00 76 1013.8
20220527202311 88 90 6.0 11.0 0.00 0.00 0.00 76 1013.9
20220527201805 88 90 6.0 12.0 0.00 0.00 0.00 74 1013.9
20220527201259 89 90 6.0 12.0 0.00 0.00 0.00 75 1014.0
20220527200754 88 90 6.0 11.0 0.00 0.00 0.00 73 1014.0
20220527200248 89 90 5.0 11.0 0.00 0.00 0.00 74 1014.0
20220527195742 89 90 5.0 11.0 0.00 0.00 0.00 72 1014.1
20220527195236 89 90 4.0 9.0 0.00 0.00 0.00 70 1014.2
20220527194729 89 90 4.0 9.0 0.00 0.00 0.00 71 1014.2
20220527194224 89 90 4.0 9.0 0.00 0.00 0.00 70 1014.3
20220527193717 89 90 4.0 9.0 0.00 0.00 0.00 70 1014.4
20220527193210 89 90 4.0 9.0 0.00 0.00 0.00 70 1014.4
20220527192704 89 90 3.0 9.0 0.00 0.00 0.00 70 1014.6
20220527192202 89 90 3.0 8.0 0.00 0.00 0.00 70 1014.6
20220527191653 89 149 3.0 8.0 0.00 0.00 0.00 70 1014.7
20220527191146 89 90 3.0 8.0 0.00 0.00 0.00 69 1014.7
20220527190640 89 90 3.0 8.0 0.00 0.00 0.00 66 1014.9
20220527190134 89 90 3.0 8.0 0.00 0.00 0.00 66 1014.9
20220527185629 89 90 3.0 8.0 0.00 0.00 0.00 68 1015.0
20220527185123 89 90 3.0 8.0 0.00 0.00 0.00 67 1015.0
20220527184616 89 90 2.0 8.0 0.00 0.00 0.00 68 1015.1
20220527184110 89 90 2.0 7.0 0.00 0.00 0.00 65 1015.2
20220527183604 89 90 1.0 6.0 0.00 0.00 0.00 68 1015.3
20220527183058 90 90 1.0 5.0 0.00 0.00 0.00 67 1015.3
20220527182552 90 90 2.0 5.0 0.00 0.00 0.00 61 1015.4
20220527182047 90 253 3.0 8.0 0.00 0.00 0.00 62 1015.4
20220527181541 90 243 3.0 9.0 0.00 0.00 0.00 61 1015.5
20220527181034 90 90 2.0 8.0 0.00 0.00 0.00 62 1015.5
20220527180535 89 90 2.0 8.0 0.00 0.00 0.00 58 1015.6
20220527180045 90 90 1.0 7.0 0.00 0.00 0.00 60 1015.6
20220527175530 90 90 0.0 4.0 0.00 0.00 0.00 65 1015.7
20220527175027 89 221 0.0 4.0 0.00 0.00 0.00 61 1015.6
20220527174529 89 228 0.0 2.0 0.00 0.00 0.00 63 1015.7
20220527174031 89 90 0.0 3.0 0.00 0.00 0.00 62 1015.8
20220527173528 89 90 0.0 3.0 0.00 0.00 0.00 67 1015.8
20220527173027 88 263 0.0 3.0 0.00 0.00 0.00 66 1015.8
20220527172525 88 254 0.0 4.0 0.00 0.00 0.00 68 1015.9
20220527172026 88 90 0.0 4.0 0.00 0.00 0.00 67 1016.0
20220527171526 87 90 0.0 3.0 0.00 0.00 0.00 68 1016.0
20220527171026 87 90 1.0 5.0 0.00 0.00 0.00 70 1016.1
20220527170521 87 90 1.0 5.0 0.00 0.00 0.00 70 1016.1
20220527170023 87 245 1.0 6.0 0.00 0.00 0.00 68 1016.2
20220527165521 87 245 1.0 6.0 0.00 0.00 0.00 70 1016.2
20220527165021 87 289 0.0 4.0 0.00 0.00 0.00 71 1016.2
20220527164525 87 90 0.0 5.0 0.00 0.00 0.00 71 1016.3
20220527164020 87 90 0.0 5.0 0.00 0.00 0.00 70 1016.3
20220527163521 87 90 0.0 4.0 0.00 0.00 0.00 70 1016.3
20220527163014 87 259 0.0 2.0 0.00 0.00 0.00 71 1016.3
20220527162509 87 259 0.0 5.0 0.00 0.00 0.00 70 1016.3
20220527162002 87 305 1.0 6.0 0.00 0.00 0.00 71 1016.3
20220527161457 86 302 1.0 6.0 0.00 0.00 0.00 73 1016.3
20220527160954 87 278 1.0 6.0 0.00 0.00 0.00 73 1016.4
20220527160454 87 292 0.0 0.0 0.00 0.00 0.00 71 1016.3
20220527155738 86 268 0.0 4.0 0.00 0.00 0.00 73 1016.3
20220527155237 86 284 0.0 3.0 0.00 0.00 0.00 73 1016.4
20220527154739 86 272 1.0 10.0 0.00 0.00 0.00 73 1016.3
20220527154237 86 272 1.0 10.0 0.00 0.00 0.00 74 1016.2
20220527153737 86 314 0.0 4.0 0.00 0.00 0.00 74 1016.2
20220527153237 85 90 1.0 5.0 0.00 0.00 0.00 77 1016.2
20220527152738 85 303 1.0 5.0 0.00 0.00 0.00 78 1016.2
20220527152235 85 326 0.0 0.0 0.00 0.00 0.00 78 1016.2
20220527151733 84 324 0.0 0.0 0.00 0.00 0.00 79 1016.2
20220527151235 84 319 0.0 1.0 0.00 0.00 0.00 80 1016.2
20220527150733 84 321 0.0 1.0 0.00 0.00 0.00 82 1016.1
20220527150234 83 351 0.0 0.0 0.00 0.00 0.00 83 1016.1
20220527145733 83 334 0.0 0.0 0.00 0.00 0.00 86 1016.1
20220527145234 83 334 0.0 1.0 0.00 0.00 0.00 87 1016.1
20220527144735 82 313 0.0 1.0 0.00 0.00 0.00 87 1016.1
20220527144235 82 90 0.0 2.0 0.00 0.00 0.00 87 1016.1
20220527143733 82 317 0.0 2.0 0.00 0.00 0.00 88 1016.1
20220527143235 82 328 0.0 1.0 0.00 0.00 0.00 86 1016.1
20220527142734 83 331 0.0 0.0 0.00 0.00 0.00 88 1016.1
20220527142234 82 337 0.0 1.0 0.00 0.00 0.00 88 1015.9
20220527141733 81 338 0.0 1.0 0.00 0.00 0.00 89 1015.9
20220527141233 82 338 0.0 0.0 0.00 0.00 0.00 89 1016.0
20220527140733 81 338 0.0 1.0 0.00 0.00 0.00 91 1016.0
20220527140233 81 338 0.0 1.0 0.00 0.00 0.00 92 1016.0
20220527135734 80 328 0.0 1.0 0.00 0.00 0.00 91 1016.0
20220527135228 81 328 0.0 0.0 0.00 0.00 0.00 92 1016.0
20220527134722 80 331 0.0 0.0 0.00 0.00 0.00 93 1015.9
20220527134217 80 328 0.0 0.0 0.00 0.00 0.00 94 1015.8
20220527133710 80 328 0.0 0.0 0.00 0.00 0.00 93 1015.8
20220527133205 79 317 0.0 0.0 0.00 0.00 0.00 94 1015.7
20220527132658 79 276 0.0 0.0 0.00 0.00 0.00 94 1015.6
20220527132151 79 265 0.0 0.0 0.00 0.00 0.00 94 1015.6
20220527131645 79 261 0.0 1.0 0.00 0.00 0.00 94 1015.6
20220527131140 79 261 0.0 1.0 0.00 0.00 0.00 94 1015.6
20220527130634 79 255 0.0 0.0 0.00 0.00 0.00 94 1015.5
20220527130127 79 241 0.0 0.0 0.00 0.00 0.00 95 1015.5
20220527125622 78 241 0.0 0.0 0.00 0.00 0.00 95 1015.5
20220527125116 79 241 0.0 0.0 0.00 0.00 0.00 95 1015.4
20220527124609 78 241 0.0 0.0 0.00 0.00 0.00 95 1015.4
20220527124104 78 242 0.0 0.0 0.00 0.00 0.00 95 1015.4
20220527123557 78 90 0.0 0.0 0.00 0.00 0.00 95 1015.3
20220527123052 78 241 0.0 0.0 0.00 0.00 0.00 95 1015.3
20220527122546 78 241 0.0 0.0 0.00 0.00 0.00 95 1015.2
20220527122042 78 241 0.0 0.0 0.00 0.00 0.00 95 1015.2
20220527121534 77 240 0.0 0.0 0.00 0.00 0.00 95 1015.1
20220527121027 77 240 0.0 0.0 0.00 0.00 0.00 95 1015.0
20220527120521 77 241 0.0 0.0 0.00 0.00 0.00 95 1015.0
20220527120015 77 241 0.0 0.0 0.00 0.00 0.00 95 1015.0
20220527115509 77 241 0.0 0.0 0.00 0.00 0.00 95 1014.9
20220527115004 77 241 0.0 0.0 0.00 0.00 0.00 95 1014.9
20220527114457 77 241 0.0 0.0 0.00 0.00 0.00 95 1014.9
20220527113952 77 241 0.0 1.0 0.00 0.00 0.00 94 1014.9
20220527113446 77 241 0.0 1.0 0.00 0.00 0.00 95 1014.8
20220527112941 77 90 0.0 0.0 0.00 0.00 0.00 94 1014.8
20220527112434 77 240 0.0 0.0 0.00 0.00 0.00 94 1014.7
20220527111928 77 241 0.0 0.0 0.00 0.00 0.00 94 1014.7
20220527111422 77 90 0.0 1.0 0.00 0.00 0.00 94 1014.7
20220527110916 77 90 0.0 1.0 0.00 0.00 0.00 94 1014.6
20220527110409 77 90 0.0 3.0 0.00 0.00 0.00 94 1014.6
20220527105903 77 90 0.0 4.0 0.00 0.00 0.00 94 1014.5
20220527105357 77 236 0.0 5.0 0.00 0.00 0.00 94 1014.3
20220527104851 77 90 0.0 5.0 0.00 0.00 0.00 94 1014.2
20220527104346 77 238 0.0 3.0 0.00 0.00 0.00 94 1014.2
20220527103840 77 239 0.0 1.0 0.00 0.00 0.00 94 1014.2
20220527103335 77 90 0.0 2.0 0.00 0.00 0.00 94 1014.2
20220527102828 78 240 0.0 3.0 0.00 0.00 0.00 93 1014.1
20220527102321 78 90 0.0 1.0 0.00 0.00 0.00 93 1014.1
20220527101815 78 234 0.0 0.0 0.00 0.00 0.00 93 1014.1
20220527101310 78 236 0.0 2.0 0.00 0.00 0.00 93 1014.1
20220527100804 78 235 0.0 3.0 0.00 0.00 0.00 93 1014.0
20220527100258 78 90 1.0 5.0 0.00 0.00 0.00 93 1014.0
20220527095753 78 228 2.0 7.0 0.00 0.00 0.00 93 1014.0
20220527095246 78 90 2.0 8.0 0.00 0.00 0.00 93 1013.9
20220527094740 78 222 2.0 9.0 0.00 0.00 0.00 93 1013.8
20220527094235 78 231 2.0 9.0 0.00 0.00 0.00 93 1013.8
20220527093734 78 225 2.0 8.0 0.00 0.00 0.00 93 1013.7
20220527093233 78 230 2.0 8.0 0.00 0.00 0.00 93 1013.6
20220527092732 78 224 3.0 8.0 0.00 0.00 0.00 93 1013.6
20220527092237 78 229 3.0 10.0 0.00 0.00 0.00 93 1013.7
20220527091733 78 90 2.0 10.0 0.00 0.00 0.00 93 1013.7
20220527091232 78 225 2.0 7.0 0.00 0.00 0.00 93 1013.7
20220527090732 78 229 2.0 6.0 0.00 0.00 0.00 93 1013.7
20220527090230 78 90 2.0 7.0 0.00 0.00 0.00 93 1013.7
20220527085730 78 227 3.0 8.0 0.00 0.00 0.00 92 1013.7
20220527085230 78 227 3.0 8.0 0.00 0.00 0.00 92 1013.7
20220527084730 78 225 2.0 8.0 0.00 0.00 0.00 92 1013.7
20220527084231 78 90 2.0 9.0 0.00 0.00 0.00 92 1013.7
20220527083730 78 90 3.0 9.0 0.00 0.00 0.00 92 1013.7
20220527083226 78 220 3.0 7.0 0.00 0.00 0.00 92 1013.7
20220527082726 78 90 3.0 8.0 0.00 0.00 0.00 92 1013.6
20220527082226 78 90 3.0 8.0 0.00 0.00 0.00 92 1013.6
20220527081724 78 90 2.0 8.0 0.00 0.00 0.00 92 1013.7
20220527081227 78 90 2.0 6.0 0.00 0.00 0.00 92 1013.7
20220527080720 78 224 3.0 6.0 0.00 0.00 0.00 92 1013.7
20220527080216 78 90 3.0 8.0 0.00 0.00 0.00 91 1013.7
20220527075711 78 90 3.0 8.0 0.00 0.00 0.00 91 1013.7
20220527075210 78 90 3.0 8.0 0.00 0.00 0.00 91 1013.7
20220527074711 78 90 3.0 8.0 0.00 0.00 0.00 91 1013.7
20220527074210 78 90 2.0 6.0 0.00 0.00 0.00 90 1013.8
20220527073709 78 90 2.0 6.0 0.00 0.00 0.00 90 1013.8
20220527073211 78 90 3.0 6.0 0.00 0.00 0.00 90 1013.8
20220527072709 78 90 3.0 8.0 0.00 0.00 0.00 89 1013.8
20220527072208 78 90 3.0 8.0 0.00 0.00 0.00 90 1013.8
20220527071708 78 90 3.0 8.0 0.00 0.00 0.00 90 1013.8
20220527071209 78 90 3.0 8.0 0.00 0.00 0.00 90 1013.8
20220527070710 78 90 2.0 8.0 0.00 0.00 0.00 90 1013.9
20220527070204 78 90 2.0 8.0 0.00 0.00 0.00 91 1013.9
20220527065706 78 90 3.0 8.0 0.00 0.00 0.00 91 1013.9
20220527065204 78 90 2.0 8.0 0.00 0.00 0.00 91 1013.9
20220527064704 78 90 2.0 6.0 0.00 0.00 0.00 91 1013.9
20220527064205 78 90 3.0 6.0 0.00 0.00 0.00 91 1013.9
20220527063705 78 90 3.0 6.0 0.00 0.00 0.00 91 1013.9
20220527063206 78 90 3.0 8.0 0.00 0.00 0.00 91 1013.9
20220527062704 78 90 3.0 8.0 0.00 0.00 0.00 91 1013.9
20220527062205 78 90 2.0 8.0 0.00 0.00 0.00 90 1014.0
20220527061700 78 90 2.0 6.0 0.00 0.00 0.00 90 1014.0
20220527061206 78 90 2.0 6.0 0.00 0.00 0.00 90 1014.0
20220527060701 78 218 1.0 5.0 0.00 0.00 0.00 90 1014.1
20220527060202 78 222 1.0 5.0 0.00 0.00 0.00 90 1014.0
20220527055701 78 90 1.0 5.0 0.00 0.00 0.00 89 1014.0
20220527055200 78 90 1.0 5.0 0.00 0.00 0.00 89 1014.0
20220527054702 78 90 1.0 5.0 0.00 0.00 0.00 89 1014.0
20220527054200 78 90 1.0 5.0 0.00 0.00 0.00 90 1014.0
20220527053702 78 90 1.0 5.0 0.00 0.00 0.00 89 1013.9
20220527053154 78 90 0.0 4.0 0.00 0.00 0.00 89 1013.9
20220527052648 78 90 1.0 4.0 0.00 0.00 0.00 89 1013.8
20220527052153 78 90 2.0 6.0 0.00 0.00 0.00 88 1013.8
20220527051646 79 90 2.0 6.0 0.00 0.00 0.00 87 1013.9
20220527051146 79 90 2.0 6.0 0.00 0.00 0.00 87 1013.9
20220527050644 79 90 2.0 6.0 0.00 0.00 0.00 87 1014.0
20220527050144 79 218 2.0 6.0 0.00 0.00 0.00 86 1014.0
20220527045645 79 213 1.0 6.0 0.00 0.00 0.00 86 1014.0
20220527045145 79 90 2.0 6.0 0.00 0.00 0.00 86 1014.0
20220527044642 79 90 2.0 8.0 0.00 0.00 0.00 86 1014.0
20220527044141 79 216 2.0 8.0 0.00 0.00 0.00 87 1013.9
20220527043641 79 213 2.0 6.0 0.00 0.00 0.00 87 1013.8
20220527043141 79 90 2.0 7.0 0.00 0.00 0.00 87 1013.8
20220527042640 79 219 3.0 8.0 0.00 0.00 0.00 86 1013.8
20220527042143 79 218 3.0 8.0 0.00 0.00 0.00 86 1013.8
20220527041641 80 90 3.0 8.0 0.00 0.00 0.00 86 1013.7
20220527041141 80 90 4.0 10.0 0.00 0.00 0.00 85 1013.7
20220527040643 80 90 4.0 10.0 0.00 0.00 0.00 85 1013.7
20220527040142 80 90 4.0 9.0 0.00 0.00 0.00 85 1013.6
20220527035636 80 90 3.0 9.0 0.00 0.00 0.00 84 1013.6